When you browse on this site, cookies collect data to enhance your experience and personalize the content and advertising you see.
Visit our Privacy Policy to learn more. By continuing to use the site, you agree to this use of cookies and data.
EN

Hourly Weather Gorbaticy

Today, 18 September, Friday

Time Temperature Precipitation Wind Pressure Humidity
00:00 +7°C° 0.3 mm 10 mps 753 mmHg 86%
01:00 +7°C° 0.3 mm 10 mps 753 mmHg 86%
02:00 +7°C° 0 mm 9 mps 754 mmHg 86%
03:00 +7°C° 0.1 mm 9 mps 755 mmHg 84%
04:00 +7°C° 0.1 mm 9 mps 755 mmHg 82%
05:00 +7°C° 0.1 mm 9 mps 755 mmHg 80%
06:00 +7°C° 0 mm 8 mps 756 mmHg 79%
07:00 +7°C° 0 mm 8 mps 757 mmHg 78%
08:00 +8°C° 0 mm 7 mps 758 mmHg 76%
09:00 +8°C° 0 mm 7 mps 758 mmHg 74%
10:00 +9°C° 0 mm 7 mps 759 mmHg 71%
11:00 +9°C° 0 mm 8 mps 760 mmHg 69%
12:00 +10°C° 0 mm 7 mps 760 mmHg 64%
13:00 +11°C° 0 mm 7 mps 760 mmHg 59%
14:00 +12°C° 0 mm 7 mps 760 mmHg 55%
15:00 +13°C° 0 mm 6 mps 760 mmHg 56%
16:00 +13°C° 0 mm 5 mps 760 mmHg 57%
17:00 +13°C° 0 mm 4 mps 760 mmHg 58%
18:00 +12°C° 0 mm 4 mps 760 mmHg 61%
19:00 +12°C° 0 mm 4 mps 760 mmHg 64%
20:00 +10°C° 0 mm 5 mps 760 mmHg 66%
21:00 +10°C° 0 mm 5 mps 759 mmHg 68%
22:00 +10°C° 0 mm 5 mps 759 mmHg 71%
23:00 +10°C° 0 mm 5 mps 759 mmHg 73%

Tomorrow, 19 September, Saturday

Time Temperature Precipitation Wind Pressure Humidity
00:00 +10°C° 0 mm 5 mps 759 mmHg 76%
01:00 +10°C° 0 mm 5 mps 759 mmHg 79%
02:00 +10°C° 0 mm 5 mps 759 mmHg 82%
03:00 +9°C° 0 mm 5 mps 759 mmHg 86%
04:00 +10°C° 0 mm 4 mps 759 mmHg 90%
05:00 +8°C° 0 mm 4 mps 759 mmHg 94%
06:00 +10°C° 0 mm 4 mps 760 mmHg 88%
07:00 +9°C° 0 mm 5 mps 760 mmHg 83%
08:00 +10°C° 0 mm 5 mps 760 mmHg 77%
09:00 +12°C° 0 mm 5 mps 760 mmHg 71%
10:00 +11°C° 0 mm 6 mps 760 mmHg 65%
11:00 +13°C° 0 mm 6 mps 760 mmHg 59%
12:00 +14°C° 0 mm 6 mps 760 mmHg 58%
13:00 +14°C° 0 mm 6 mps 760 mmHg 57%
14:00 +14°C° 0 mm 6 mps 760 mmHg 57%
15:00 +14°C° 0 mm 6 mps 760 mmHg 60%
16:00 +13°C° 0 mm 6 mps 760 mmHg 62%
17:00 +12°C° 0 mm 5 mps 761 mmHg 65%
18:00 +10°C° 0 mm 5 mps 761 mmHg 66%
19:00 +10°C° 0 mm 5 mps 761 mmHg 67%
20:00 +11°C° 0 mm 4 mps 761 mmHg 68%
21:00 +10°C° 0 mm 4 mps 761 mmHg 70%
22:00 +10°C° 0 mm 4 mps 762 mmHg 72%
23:00 +10°C° 0 mm 4 mps 762 mmHg 74%

Day after tomorrow, 20 September, Sunday

Time Temperature Precipitation Wind Pressure Humidity
00:00 +8°C° 0 mm 4 mps 762 mmHg 79%
01:00 +8°C° 0 mm 3 mps 762 mmHg 85%
02:00 +7°C° 0 mm 3 mps 762 mmHg 91%
03:00 +7°C° 0 mm 3 mps 762 mmHg 92%
04:00 +5°C° 0 mm 3 mps 763 mmHg 93%
05:00 +5°C° 0 mm 3 mps 763 mmHg 93%
06:00 +7°C° 0 mm 3 mps 763 mmHg 89%
07:00 +8°C° 0 mm 3 mps 763 mmHg 85%
08:00 +9°C° 0 mm 3 mps 763 mmHg 80%
09:00 +10°C° 0 mm 3 mps 763 mmHg 73%
10:00 +12°C° 0 mm 3 mps 763 mmHg 66%
11:00 +13°C° 0 mm 3 mps 763 mmHg 59%
12:00 +14°C° 0 mm 4 mps 763 mmHg 58%
13:00 +14°C° 0 mm 4 mps 763 mmHg 57%
14:00 +15°C° 0 mm 4 mps 762 mmHg 57%
15:00 +16°C° 0 mm 3 mps 762 mmHg 60%
16:00 +14°C° 0 mm 3 mps 762 mmHg 64%
17:00 +15°C° 0 mm 2 mps 761 mmHg 67%
18:00 +12°C° 0 mm 3 mps 761 mmHg 72%
19:00 +11°C° 0 mm 3 mps 761 mmHg 76%
20:00 +10°C° 0 mm 4 mps 761 mmHg 81%
21:00 +10°C° 0 mm 4 mps 761 mmHg 77%
22:00 +10°C° 0 mm 4 mps 761 mmHg 73%
23:00 +10°C° 0 mm 4 mps 761 mmHg 70%

21 September, Monday

Time Temperature Precipitation Wind Pressure Humidity
00:00 +11°C° 0 mm 4 mps 760 mmHg 71%
01:00 +10°C° 0 mm 5 mps 760 mmHg 73%
02:00 +10°C° 0 mm 5 mps 760 mmHg 74%
03:00 +11°C° 0 mm 4 mps 760 mmHg 79%
04:00 +11°C° 0 mm 4 mps 760 mmHg 83%
05:00 +10°C° 0 mm 4 mps 760 mmHg 88%
06:00 +11°C° 0 mm 4 mps 760 mmHg 88%
07:00 +11°C° 0 mm 4 mps 760 mmHg 88%
08:00 +12°C° 0 mm 3 mps 760 mmHg 89%
09:00 +13°C° 0 mm 3 mps 760 mmHg 85%
10:00 +14°C° 0 mm 3 mps 759 mmHg 81%
11:00 +15°C° 0 mm 4 mps 759 mmHg 77%
12:00 +17°C° 0 mm 3 mps 759 mmHg 75%
13:00 +17°C° 0 mm 3 mps 759 mmHg 73%
14:00 +18°C° 0 mm 3 mps 759 mmHg 70%
15:00 +17°C° 0 mm 3 mps 759 mmHg 73%
16:00 +17°C° 0 mm 2 mps 758 mmHg 76%
17:00 +18°C° 0 mm 1 mps 758 mmHg 79%
18:00 +15°C° 0 mm 2 mps 758 mmHg 84%
19:00 +14°C° 0 mm 2 mps 758 mmHg 88%
20:00 +13°C° 0 mm 2 mps 758 mmHg 93%
21:00 +12°C° 0 mm 3 mps 758 mmHg 92%
22:00 +12°C° 0 mm 3 mps 758 mmHg 92%
23:00 +12°C° 0 mm 4 mps 757 mmHg 91%

22 September, Tuesday

Time Temperature Precipitation Wind Pressure Humidity
00:00 +12°C° 0 mm 4 mps 757 mmHg 91%
01:00 +12°C° 0 mm 4 mps 757 mmHg 91%
02:00 +12°C° 0 mm 4 mps 756 mmHg 91%
03:00 +12°C° 0 mm 4 mps 756 mmHg 88%
04:00 +11°C° 0 mm 4 mps 756 mmHg 84%
05:00 +11°C° 0 mm 4 mps 756 mmHg 81%
06:00 +12°C° 0 mm 5 mps 756 mmHg 78%
07:00 +12°C° 0 mm 5 mps 756 mmHg 75%
08:00 +13°C° 0 mm 5 mps 756 mmHg 72%
09:00 +14°C° 0 mm 5 mps 756 mmHg 66%
10:00 +16°C° 0 mm 5 mps 755 mmHg 61%
11:00 +17°C° 0 mm 5 mps 755 mmHg 55%
12:00 +19°C° 0 mm 5 mps 755 mmHg 53%
13:00 +20°C° 0 mm 5 mps 755 mmHg 50%
14:00 +21°C° 0 mm 5 mps 754 mmHg 48%
15:00 +20°C° 0 mm 4 mps 754 mmHg 53%
16:00 +19°C° 0 mm 4 mps 754 mmHg 59%
17:00 +18°C° 0 mm 3 mps 753 mmHg 64%
18:00 +17°C° 0 mm 3 mps 753 mmHg 70%
19:00 +15°C° 0 mm 4 mps 753 mmHg 75%
20:00 +14°C° 0 mm 4 mps 753 mmHg 80%
21:00 +14°C° 0 mm 4 mps 753 mmHg 81%
22:00 +14°C° 0 mm 4 mps 753 mmHg 82%
23:00 +14°C° 0 mm 4 mps 752 mmHg 83%

23 September, Wednesday

Time Temperature Precipitation Wind Pressure Humidity
00:00 +14°C° 0 mm 4 mps 752 mmHg 83%
01:00 +14°C° 0 mm 5 mps 752 mmHg 83%
02:00 +14°C° 0 mm 5 mps 751 mmHg 83%
03:00 +14°C° 0 mm 5 mps 751 mmHg 83%
04:00 +14°C° 0 mm 5 mps 751 mmHg 82%
05:00 +14°C° 0 mm 5 mps 751 mmHg 82%
06:00 +14°C° 0 mm 5 mps 750 mmHg 80%
07:00 +15°C° 0 mm 5 mps 750 mmHg 77%
08:00 +16°C° 0 mm 5 mps 750 mmHg 75%
09:00 +17°C° 0 mm 5 mps 750 mmHg 70%
10:00 +20°C° 0 mm 5 mps 750 mmHg 66%
11:00 +21°C° 0 mm 6 mps 750 mmHg 61%
12:00 +22°C° 0 mm 6 mps 750 mmHg 59%
13:00 +22°C° 0 mm 6 mps 750 mmHg 57%
14:00 +23°C° 0 mm 6 mps 750 mmHg 54%
15:00 +22°C° 0 mm 5 mps 750 mmHg 59%
16:00 +22°C° 0 mm 4 mps 750 mmHg 64%
17:00 +21°C° 0 mm 3 mps 750 mmHg 68%
18:00 +20°C° 0 mm 3 mps 750 mmHg 73%
19:00 +19°C° 0 mm 3 mps 750 mmHg 77%
20:00 +18°C° 0 mm 4 mps 750 mmHg 82%
21:00 +17°C° 0 mm 3 mps 750 mmHg 83%
22:00 +17°C° 0 mm 3 mps 750 mmHg 85%
23:00 +16°C° 0 mm 3 mps 750 mmHg 87%
Show more